Location: ??????
(55.7522°N, 37.6156°E)
Time: 09:53:25
(UTC+00:00)

USA 229 DEB - Pass Details

Date: 14 December 2025
Orbit: 844 x 1364 km, 63.4° (Epoch: 10 January)

Event Time Altitude Azimuth Distance (km) Brightness Sun altitude
Exits shadow 02:21:28 48° 325° (NW) 1,489 4.1 -27.7°
Maximum altitude 02:23:40 70° 31° (NNE) 1,262 4.0 -27.4°
Drops below altitude 10° 02:31:39 10° 115° (ESE) 3,297 7.1 -26.3°
Sets 02:34:37 0° 118° (ESE) 4,315 7.9 -25.9°
